Weather in Pushkino

Russia / Bryansk Oblast     52°09′36″N   34°20′20″E
temp.,
°C
wind,
m/s
gust,
m/s
humid.,
%
clouds,
%
prec.,
mm/h
press.,
hPa
HPBL,
m
1 august, sun
sun100:00+20s226831 0.0 101117
03:00+19ssw3465100 0.0 101154
06:00+19s357099 0.0 101172
09:00+24ssw465978 0.0 1011317
12:00+28ssw5646100 0.0 10111788
15:00+30sw373888 0.0 10102374
18:00+22ne457650 0.8 100959
21:00+21s598467 1.9 1010202
2 august, mon
mon200:00+19s2280100 0.8 101017
03:00+19sse348636 1.6 100956
06:00+18sse379088 0.3 1008119
09:00+24s587042 0.4 1007327
12:00+29ssw7950100 0.0 10071574
15:00+30s5946100 0.0 10051072
18:00+21se9148830 3.0 1005436
21:00+20ssw478992 10.9 1006128
3 august, tue
tue300:00+18wsw51291100 2.3 1007335
03:00+17wsw5109791 2.3 1007357
06:00+17wnw599447 0.0 1009601
09:00+18wnw577932 0.0 1011771
12:00+22wnw565862 0.1 10121571
15:00+24wnw5649100 0.1 10112079
18:00+22wnw476237 0.0 1012615
21:00+17wnw227921 0.4 101415
4 august, wed
wed400:00+17wnw2375100 0.1 101540
03:00+15w347629 0.1 101655
06:00+13w228062 0.0 101727
09:00+18w236695 0.0 1017261
12:00+22wsw344845 0.0 10181522
15:00+22nw3451100 0.0 1017993
18:00+23ssw134845 0.0 1017907
21:00+18se2263100 0.0 101712
5 august, thu
thu500:00+16sse226655 0.0 101811
03:00+15sse2267100 0.0 101817
06:00+16se2364100 0.0 101867
09:00+17ssw3669100 0.0 1018253
12:00+18se3773100 0.0 1018270
15:00+24s4555100 0.1 10161169
18:00+21sse3566100 0.0 1016156
21:00+18ese477326 0.0 1015151